Terminal Aerodrome Forecast
Issued by NWS

Home | Current Version | Previous Version | Graphics & Text | Print | Product List | Glossary On
Versions: 1 2 3 4 5 6 7 8 9 10 11 12 13 14 15 16 17 18 19 20
000
FTUS43 KMPX 242344
TAFRWF
TAF
KRWF 242344Z 2500/2524 31005KT P6SM VCSH OVC070
     FM250300 36005KT 2SM -SN OVC030
     FM250400 03011KT 1 1/2SM -SN OVC009
     FM250800 03010KT 6SM -SN OVC020
     FM251100 03009KT P6SM BKN025
     FM251500 03007KT P6SM SCT025=

USA.gov is the U.S. government's official web portal to all federal, state and local government web resources and services.